Theta_e
297 297 296 296 296 296 296 296 295 295 295 294 294 294 293 293 293 293 292 292 291 292 293 292 292 294 293 294 294 293 292 291 287 290 292 294 294 293 295 298 297 299 301
296 296 296 296 296 295 295 295 295 294 293 292 292 291 290 290 291 290 290 291 290 291 291 291 292 293 292 293 293 292 291 292 289 286 290 291 292 294 294 294 296 298 298
295 295 295 295 295 295 294 293 293 292 292 292 291 290 289 290 290 290 290 289 290 290 291 291 291 291 290 291 291 291 291 291 290 288 287 291 290 292 291 293 293 295 297
294 294 295 295 295 294 293 292 293 293 292 291 291 290 289 289 289 289 289 289 289 290 291 291 291 290 290 290 290 290 290 289 289 288 287 287 287 289 290 289 289 291 291
293 293 294 295 294 293 292 293 293 292 291 291 290 290 289 289 289 288 289 289 289 289 290 291 291 290 289 290 290 289 289 288 287 286 286 286 286 286 286 288 288 290 291
292 293 293 293 292 292 292 292 292 291 291 291 290 289 288 288 289 289 289 289 289 288 288 289 290 288 289 290 290 291 291 288 286 286 286 285 286 286 288 287 287 286 286
293 292 292 292 291 292 292 291 290 290 289 289 289 289 288 289 290 289 288 288 289 289 289 289 289 290 288 290 290 290 290 290 291 289 287 286 286 288 288 287 287 286 286
289 291 291 291 290 290 290 288 288 288 287 286 287 287 288 289 290 289 288 288 289 288 288 288 288 288 290 288 288 287 287 288 288 289 289 288 288 288 289 290 289 285 284
285 285 286 287 286 287 286 285 288 287 286 286 286 286 285 287 288 288 288 288 287 286 287 288 287 287 288 290 288 286 287 287 290 289 287 286 285 284 284 286 286 285 284
284 285 285 284 284 284 285 284 287 286 285 285 285 286 286 285 287 287 288 286 286 285 286 286 286 286 290 290 288 287 285 286 285 284 283 281 280 279 279 279 285 286 284
284 284 283 284 283 285 285 284 286 285 285 285 284 286 286 286 286 287 288 286 285 285 284 285 285 288 289 290 291 288 287 286 283 281 280 278 277 276 275 275 276 281 283
283 282 283 283 284 284 284 284 284 284 284 284 285 285 287 287 286 287 287 287 287 284 283 285 285 287 287 288 287 289 286 284 282 280 278 276 276 275 275 274 274 274 276
282 282 283 284 284 284 283 284 284 285 284 284 285 285 286 286 286 287 287 287 287 285 285 285 286 286 285 284 285 284 282 282 280 278 276 276 277 278 277 276 276 275 273
283 283 284 282 284 284 285 285 285 285 285 284 284 285 285 285 286 286 286 286 284 285 285 285 285 284 283 282 282 281 280 280 278 277 277 278 279 277 276 277 275 274 271
284 284 285 285 285 285 285 286 285 286 286 285 286 286 284 284 285 286 285 284 285 284 284 284 284 283 282 281 279 279 280 279 278 279 278 278 276 275 274 275 273 272 269
283 284 285 286 287 286 285 285 287 287 287 288 288 287 286 286 287 286 285 285 286 285 282 282 283 281 282 280 278 277 278 278 278 278 277 276 275 273 272 273 273 271 269
283 284 285 283 284 284 285 284 284 287 288 287 287 287 287 287 287 286 285 285 285 282 280 282 282 282 280 278 278 278 277 276 277 277 275 275 274 273 272 271 271 270 268
279 277 282 284 284 285 284 284 284 283 283 285 287 286 287 287 287 286 284 283 281 282 280 281 281 281 279 278 278 278 277 277 276 275 275 275 274 272 271 270 269 268 266
281 282 283 283 284 283 283 283 283 283 283 284 284 285 282 285 286 285 283 279 280 280 279 279 280 280 279 279 278 278 277 275 274 273 272 271 270 269 267 266 265 265 265
280 276 277 283 283 283 283 282 282 283 283 283 283 284 284 277 280 281 282 281 280 279 279 279 278 278 278 278 277 274 272 271 270 270 270 269 269 267 266 264 264 262 261
281 282 278 281 281 282 282 282 283 283 282 283 283 284 285 282 282 283 282 280 280 280 279 278 277 277 277 277 276 274 272 270 268 268 268 266 265 264 263 263 262 261 261
280 281 281 281 282 282 282 282 282 282 282 282 283 284 285 282 281 282 281 280 280 280 279 278 277 277 277 276 275 272 270 268 266 266 265 263 264 263 263 262 262 261 260
277 278 279 279 280 280 281 281 280 281 281 282 282 283 281 281 281 280 281 280 277 275 275 276 276 274 274 275 275 272 269 267 267 265 265 264 263 263 262 261 260 260 258
275 276 276 277 278 279 279 280 279 279 280 281 282 283 282 281 281 280 279 277 274 274 272 272 273 272 271 271 270 269 267 266 265 264 264 264 263 262 262 261 259 258 259
274 274 275 275 275 276 277 278 278 278 279 280 281 282 282 282 280 279 278 274 273 272 271 271 270 270 268 267 266 264 264 265 264 263 263 262 261 260 260 260 259 258 256
272 273 273 273 273 274 274 275 277 278 278 279 280 281 282 281 280 278 275 272 271 271 270 269 268 267 266 265 264 263 266 264 263 262 263 262 261 260 260 258 257 258 257
Wind_Speed
6 5 4 3 1 2 2 3 4 5 6 7 8 9 10 11 11 10 10 11 11 10 9 10 11 11 8 8 8 8 9 9 13 9 7 7 7 12 13 11 10 11 7
6 6 5 4 3 2 2 3 4 5 6 7 7 8 10 9 9 9 10 11 12 11 10 11 12 9 11 10 9 9 9 9 9 14 7 6 10 10 10 11 10 10 10
7 6 6 5 4 2 2 3 4 5 6 6 7 8 9 10 10 9 9 12 13 13 11 11 12 11 11 9 10 9 7 8 8 8 8 6 5 9 9 10 10 7 8
7 7 6 5 3 2 2 3 4 5 6 7 8 9 10 10 10 9 9 9 11 12 11 11 12 12 13 12 10 9 8 8 9 8 8 7 4 6 5 6 7 4 4
8 7 6 5 3 2 2 3 4 5 6 7 8 9 9 8 7 8 9 10 10 12 11 12 12 12 14 15 9 9 8 8 7 8 7 7 7 8 7 3 5 6 5
7 6 5 5 4 3 3 3 4 5 6 7 8 8 10 7 12 14 12 9 10 11 12 12 12 11 11 16 15 16 14 9 10 7 7 9 11 9 9 6 6 3 4
7 6 5 4 4 4 3 4 5 6 7 8 9 9 9 9 9 14 14 8 9 9 11 11 10 7 7 6 8 11 12 13 14 10 10 11 11 10 8 8 8 2 3
5 5 5 5 4 3 2 4 4 6 6 8 9 10 10 9 12 14 14 9 8 10 10 11 10 9 7 5 6 7 7 6 7 5 8 8 7 7 8 9 6 2 2
6 6 5 4 4 4 6 5 4 5 6 7 6 7 10 10 14 14 13 7 7 10 9 9 9 9 13 13 7 7 7 8 6 5 5 8 10 11 11 5 5 3 2
6 6 5 5 5 5 5 5 3 6 7 6 8 7 9 11 13 14 12 5 7 6 10 8 12 12 18 13 6 6 9 5 1 3 3 6 9 9 14 8 2 5 2
5 5 5 5 5 5 3 4 5 6 6 8 8 7 8 9 10 14 13 5 5 6 8 7 7 17 20 11 10 6 7 2 4 3 3 4 6 7 7 8 9 4 2
6 5 5 5 4 4 5 4 4 5 8 9 8 7 4 6 10 11 13 12 10 6 8 5 6 15 12 14 9 8 9 5 4 4 4 5 6 6 6 8 10 10 10
6 6 4 4 4 3 3 4 4 6 6 7 6 5 5 3 5 11 11 12 10 6 6 9 12 11 10 7 10 8 5 3 4 4 4 4 3 3 4 4 7 9 15
5 4 4 4 4 4 4 4 5 6 6 7 7 6 5 5 6 4 5 5 6 6 6 5 6 6 6 5 3 5 4 4 4 4 3 2 3 4 5 4 4 6 10
3 3 4 4 5 4 5 5 6 7 7 6 7 6 6 6 4 10 10 7 5 5 9 5 3 2 2 2 2 3 3 3 4 3 3 4 4 4 5 5 7 9 9
3 3 4 3 2 3 3 4 12 15 13 16 17 11 6 13 16 14 14 16 16 7 4 4 3 1 3 1 1 2 3 4 3 3 4 4 5 5 6 7 7 8 10
4 3 2 3 2 2 2 4 6 4 14 15 17 18 18 16 14 14 13 15 13 5 4 4 3 1 1 1 0 1 2 3 3 4 5 5 6 5 6 7 7 7 8
3 4 3 3 3 3 3 4 3 5 6 5 9 14 15 16 15 13 11 9 5 3 4 3 2 1 1 2 1 3 3 3 4 3 5 5 5 5 6 7 6 7 7
4 4 4 4 4 4 3 4 4 5 6 7 5 5 6 12 13 12 9 4 4 3 3 3 1 1 1 1 2 3 3 3 3 4 5 4 4 5 6 6 7 7 7
3 6 5 4 4 4 4 5 5 6 6 6 6 7 2 2 3 5 5 4 3 3 2 2 2 2 2 2 3 4 3 3 2 4 4 5 5 5 6 5 4 6 7
3 3 5 5 5 5 5 6 6 6 7 7 8 6 9 5 6 5 4 4 4 3 3 3 3 3 3 3 4 4 3 3 3 5 5 4 4 6 5 6 7 6 7
4 5 5 6 6 6 6 6 6 7 7 8 8 7 12 6 6 6 5 4 4 3 3 3 4 3 3 4 4 4 4 5 4 4 5 5 5 5 5 6 6 6 5
5 6 7 7 7 8 8 8 8 8 8 8 8 7 5 6 7 7 6 5 5 4 4 3 4 4 2 3 2 4 5 5 6 7 7 7 6 6 5 7 5 5 4
6 7 7 7 8 8 8 8 8 12 11 9 8 9 8 7 8 7 6 5 5 5 5 4 3 5 6 4 3 2 3 5 5 5 7 8 8 7 7 7 6 7 7
7 8 8 7 8 7 8 8 8 10 11 11 10 10 8 8 7 7 6 6 6 6 6 5 4 6 7 7 6 6 5 9 8 7 5 7 9 8 7 8 8 8 7
7 8 7 6 8 8 8 9 10 10 9 10 11 11 10 8 8 7 7 7 7 6 7 6 6 8 9 7 8 9 10 10 9 9 8 9 9 8 7 9 10 8 8
Wind_Direction
162 150 146 150 199 245 267 299 316 323 332 328 326 324 321 316 310 301 293 291 285 277 272 271 271 272 271 269 263 262 265 263 273 282 281 287 290 296 286 289 293 288 268
164 164 177 185 206 241 303 320 335 334 338 326 322 318 311 300 297 296 293 288 287 286 284 281 277 278 278 276 273 271 272 271 274 282 281 275 272 277 293 297 291 290 284
167 177 186 197 198 216 288 334 335 324 320 320 316 309 305 300 292 286 286 289 290 288 285 283 283 282 278 275 273 272 275 271 270 273 285 274 280 288 283 281 286 292 289
176 186 192 194 192 231 315 304 311 314 310 320 313 308 305 303 301 290 285 290 291 293 287 282 279 275 275 276 272 270 275 271 272 272 284 282 263 268 270 282 294 268 272
176 183 195 186 191 215 265 301 312 312 309 308 306 305 310 301 295 303 300 294 293 293 290 283 277 274 271 270 276 275 281 272 279 283 274 286 285 284 283 283 292 300 288
176 184 175 184 201 227 266 298 309 302 306 303 313 314 311 299 297 301 304 301 302 296 293 290 281 271 262 264 263 267 272 276 280 280 275 275 281 289 293 288 286 306 305
172 176 184 193 214 234 263 289 300 306 318 320 314 309 304 299 304 310 315 304 299 301 304 302 295 273 260 263 275 277 280 276 277 288 284 281 286 279 280 277 281 233 273
161 182 187 194 207 213 238 279 297 298 311 309 309 314 313 305 311 319 321 311 305 314 308 301 297 301 285 271 276 275 277 273 275 279 274 291 306 323 291 267 264 139 107
182 198 200 189 195 200 233 239 263 282 283 291 300 304 307 304 315 324 327 317 315 320 321 312 322 326 304 286 266 272 268 267 266 232 336 350 345 341 338 281 226 162 178
193 202 187 189 200 206 213 240 240 267 280 290 301 300 301 301 312 323 330 320 316 324 325 325 337 339 325 300 274 273 276 284 338 343 351 3 7 2 7 4 318 186 130
162 174 181 195 200 201 210 238 252 267 285 291 295 292 300 300 307 320 327 331 323 318 323 330 333 342 349 315 288 263 254 143 62 45 25 18 19 21 18 18 16 23 97
161 177 190 193 189 206 225 258 259 264 284 292 292 291 267 292 307 314 325 332 333 319 318 320 326 337 346 15 21 36 73 81 75 56 37 28 26 22 27 38 41 42 41
174 193 178 175 188 195 216 251 265 264 269 283 283 283 288 292 301 299 311 327 329 316 315 313 323 340 340 5 13 32 38 62 81 75 61 47 27 29 48 45 51 59 56
190 178 174 187 203 203 204 204 230 246 252 266 270 269 281 297 304 313 309 307 320 326 318 316 312 317 335 9 354 24 33 41 73 82 73 49 45 41 33 22 62 72 63
183 154 187 209 206 205 217 216 220 229 221 230 239 256 273 280 287 312 319 314 305 317 322 307 299 305 291 7 18 25 41 61 72 76 79 68 58 52 48 55 61 69 84
194 198 207 200 197 210 241 266 228 242 243 242 251 245 244 258 282 298 309 309 307 313 305 293 296 317 306 341 27 42 44 69 68 70 75 72 73 70 69 65 74 82 92
218 202 197 195 215 232 232 255 288 252 238 246 249 250 249 254 266 286 301 308 304 309 261 263 268 258 296 347 343 72 67 61 58 80 86 88 89 86 82 78 77 82 79
195 252 254 235 233 243 242 251 253 272 287 287 236 240 248 250 259 271 292 309 289 225 259 270 242 219 187 199 169 107 123 91 87 86 88 85 87 92 90 84 81 89 87
179 211 228 226 220 229 246 257 259 262 263 273 285 241 242 252 253 263 263 244 275 267 251 241 232 179 172 131 117 112 115 108 108 103 88 81 70 81 79 75 77 74 83
219 217 244 257 248 240 233 236 245 252 258 259 261 262 160 103 221 218 215 224 226 234 218 204 162 158 145 145 132 114 132 129 118 98 88 85 88 94 100 97 85 94 86
264 254 218 228 236 241 242 247 251 251 254 260 262 254 225 224 241 225 200 204 206 202 186 187 157 161 152 150 155 143 134 110 96 106 103 92 89 98 91 95 99 101 109
258 252 247 245 244 240 243 241 244 248 252 258 264 256 236 228 241 236 206 197 184 177 160 182 153 159 163 166 159 143 137 136 126 115 107 106 109 107 108 105 104 105 104
241 246 249 249 247 251 258 256 259 261 258 253 256 253 214 223 228 226 216 182 169 168 166 170 169 143 137 138 145 153 152 161 147 140 137 128 124 121 117 111 111 108 97
250 245 250 258 263 262 257 257 260 263 261 258 252 248 237 225 223 216 208 173 169 167 162 164 169 163 153 144 117 102 109 124 125 131 135 130 123 116 112 106 102 105 106
256 255 253 256 256 257 262 258 254 256 260 259 253 252 241 229 224 208 191 171 174 171 169 162 162 165 158 146 139 125 136 132 128 126 115 113 116 118 118 116 118 110 107
258 253 250 250 253 257 254 255 255 254 252 255 257 254 247 230 220 205 185 172 180 179 165 159 165 162 154 144 139 134 142 134 131 124 120 123 124 123 118 120 120 123 126